Date String (YYYY-MM-DD hh:mm:ss) UTC,Instrument flags,absolute air pressure of the measurement (hPa),sample flow rate (lpm),inlet stack bypass flow (lpm),air temperature of the measurement (°C),ambient temperature measured by the external sensor (°C),aerosol sample conditioner tube jacket temperature (°C),OPC LED temperature (°C),internal box temperature (°C),relative humidity of the measurement (%),span deviation,mass concentration of particles derived from Lorenz-Mie calculation of OPC scattering (μg/m³),mass concentration of particles derived from Lorenz-Mie calculation of OPC scattering (μg/m³),mass concentration of particles derived from Lorenz-Mie calculation of OPC scattering (μg/m³)
DateTimeUTC,F1_M11,P_M11,Q1_M11,Q2_M11,T1_M11,T2_M11,T3_M11,T4_M11,T5_M11,U1_M11,ZSPAN_M11,X2_M11,X0_M11,X1_M11
2024-02-15 08:00:00,SystemResetWarning,0828.4,5.00,000.00,019.4,018.8,000.0,028.0,021.1,20.9,0000.0,0006.79,0009.72,0006.56
2024-02-15 08:01:00,SystemResetWarning,0828.4,5.00,000.00,019.4,018.8,000.0,028.0,021.1,20.9,0000.0,0006.83,0009.68,0006.61
2024-02-15 08:02:00,SystemResetWarning,0828.4,5.00,000.00,019.4,018.8,000.0,028.0,021.1,20.9,0000.0,0006.88,0009.71,0006.66
2024-02-15 08:03:00,SystemResetWarning,0828.4,5.00,000.00,019.4,018.8,000.0,028.0,021.1,20.9,0000.0,0006.94,0009.73,0006.72
2024-02-15 08:04:00,SystemResetWarning,0828.4,4.99,000.00,019.4,018.9,000.0,027.9,021.2,20.9,0000.0,0007.00,0009.70,0006.78
2024-02-15 08:05:00,SystemResetWarning,0828.4,5.00,000.00,019.4,018.9,000.0,027.9,021.2,20.9,0000.0,0007.06,0009.70,0006.82
2024-02-15 08:06:00,SystemResetWarning,0828.3,5.01,000.00,019.4,018.9,000.0,027.9,021.2,20.9,0000.0,0007.08,0009.72,0006.84
2024-02-15 08:07:00,SystemResetWarning,0828.3,5.00,000.00,019.4,018.9,000.0,027.9,021.1,20.9,0000.0,0007.11,0009.28,0006.89
2024-02-15 08:08:00,SystemResetWarning,0828.3,5.01,000.00,019.4,018.9,000.0,027.9,021.1,20.9,0000.0,0007.16,0009.19,0006.93
2024-02-15 08:09:00,SystemResetWarning,0828.3,5.00,000.00,019.4,018.9,000.0,027.9,021.1,20.9,0000.0,0007.18,0009.18,0006.96
2024-02-15 08:10:00,SystemResetWarning,0828.4,4.98,000.00,019.4,018.9,000.0,027.9,021.2,20.9,0000.0,0007.20,0009.21,0006.97
2024-02-15 08:11:00,SystemResetWarning,0828.3,5.00,000.00,019.4,018.9,000.0,027.9,021.2,20.9,0000.0,0007.23,0009.57,0007.00
2024-02-15 08:12:00,SystemResetWarning,0828.3,5.01,000.00,019.4,018.9,000.0,027.9,021.2,20.9,0000.0,0007.25,0009.65,0007.03
2024-02-15 08:13:00,SystemResetWarning,0828.3,5.00,000.00,019.4,018.9,000.0,027.9,021.2,20.9,0000.0,0007.28,0009.66,0007.07
2024-02-15 08:14:00,SystemResetWarning,0828.3,5.00,000.00,019.4,018.8,000.0,027.9,021.1,20.9,0000.0,0007.32,0009.68,0007.11
2024-02-15 08:15:00,SystemResetWarning,0828.3,5.00,000.00,019.3,018.8,000.0,027.9,021.0,20.9,0000.0,0007.37,0009.73,0007.16
2024-02-15 08:16:00,SystemResetWarning,0828.3,4.99,000.00,019.3,018.8,000.0,027.9,021.0,21.0,0000.0,0007.34,0009.63,0007.18
2024-02-15 08:17:00,SystemResetWarning,0828.3,4.99,000.00,019.3,018.7,000.0,027.9,020.9,21.0,0000.0,0007.36,0009.63,0007.22
2024-02-15 08:18:00,SystemResetWarning,0828.4,5.00,000.00,019.3,018.7,000.0,027.8,020.9,21.0,0000.0,0007.39,0009.68,0007.24
2024-02-15 08:19:00,SystemResetWarning,0828.4,5.00,000.00,019.2,018.7,000.0,027.8,020.9,21.1,0000.0,0007.44,0009.74,0007.28
2024-02-15 08:20:00,SystemResetWarning,0828.3,4.99,000.00,019.2,018.7,000.0,027.8,021.0,21.1,0000.0,0007.48,0009.80,0007.31
2024-02-15 08:21:00,SystemResetWarning,0828.3,5.00,000.00,019.2,018.7,000.0,027.8,021.0,21.1,0000.0,0007.52,0009.99,0007.34
2024-02-15 08:22:00,SystemResetWarning,0828.2,5.01,000.00,019.2,018.7,000.0,027.8,021.0,21.1,0000.0,0007.52,0009.45,0007.36
2024-02-15 08:23:00,SystemResetWarning,0828.2,5.01,000.00,019.2,018.7,000.0,027.8,021.0,21.1,0000.0,0007.54,0009.69,0007.38
2024-02-15 08:24:00,SystemResetWarning,0828.2,4.99,000.00,019.3,018.8,000.0,027.8,021.1,21.1,0000.3,0007.57,0009.88,0007.40
2024-02-15 08:25:00,SystemResetWarning,0828.3,4.99,000.00,019.3,018.8,000.0,027.8,021.1,21.1,0000.0,0007.58,0009.89,0007.40
2024-02-15 08:26:00,SystemResetWarning,0828.3,5.01,000.00,019.3,018.8,000.0,027.8,021.1,21.1,0000.0,0007.59,0009.91,0007.41
2024-02-15 08:27:00,SystemResetWarning,0828.4,5.01,000.00,019.3,018.8,000.0,027.8,021.1,21.1,0000.0,0007.63,0010.18,0007.43
2024-02-15 08:28:00,SystemResetWarning,0828.4,4.98,000.00,019.3,018.8,000.0,027.8,021.1,21.1,0000.0,0007.67,0010.41,0007.46
2024-02-15 08:29:00,SystemResetWarning,0828.4,4.99,000.00,019.3,018.8,000.0,027.8,021.1,21.0,0000.0,0007.72,0010.52,0007.50
2024-02-15 08:30:00,SystemResetWarning,0828.4,5.01,000.00,019.3,018.8,000.0,027.8,021.1,21.0,0000.0,0007.71,0010.46,0007.50
2024-02-15 08:31:00,SystemResetWarning,0828.4,5.01,000.00,019.3,018.8,000.0,027.8,021.2,21.0,0000.0,0007.74,0010.48,0007.52
2024-02-15 08:32:00,SystemResetWarning,0828.3,4.98,000.00,019.3,018.8,000.0,027.8,021.1,21.0,0000.0,0007.77,0010.43,0007.55
2024-02-15 08:33:00,SystemResetWarning,0828.3,5.00,000.00,019.3,018.8,000.0,027.8,021.1,21.1,0000.0,0007.78,0010.32,0007.58
2024-02-15 08:34:00,SystemResetWarning,0828.3,5.00,000.00,019.3,018.8,000.0,027.8,021.0,21.1,0000.0,0007.80,0010.16,0007.60
2024-02-15 08:35:00,SystemResetWarning,0828.2,5.00,000.00,019.3,018.7,000.0,027.8,021.0,21.1,0000.0,0007.82,0009.92,0007.63
2024-02-15 08:36:00,SystemResetWarning,0828.2,5.00,000.00,019.2,018.7,000.0,027.8,020.9,21.1,0000.0,0007.84,0009.95,0007.64
2024-02-15 08:37:00,SystemResetWarning,0828.2,5.00,000.00,019.2,018.7,000.0,027.8,020.9,21.0,0000.0,0007.86,0010.02,0007.66
2024-02-15 08:38:00,SystemResetWarning,0828.2,5.00,000.00,019.2,018.7,000.0,027.7,020.9,21.0,0000.0,0007.88,0009.90,0007.68
2024-02-15 08:39:00,SystemResetWarning,0828.2,5.00,000.00,019.2,018.6,000.0,027.7,020.9,20.9,0000.0,0007.90,0009.69,0007.70
2024-02-15 08:40:00,SystemResetWarning,0828.1,4.99,000.00,019.1,018.6,000.0,027.7,020.8,20.9,0000.0,0007.91,0009.64,0007.72
2024-02-15 08:41:00,SystemResetWarning,0828.2,5.00,000.00,019.1,018.5,000.0,027.7,020.7,20.9,0000.0,0007.91,0009.68,0007.71
2024-02-15 08:42:00,SystemResetWarning,0828.1,5.00,000.00,019.1,018.5,000.0,027.7,020.6,20.9,-000.0,0007.85,0009.63,0007.66
2024-02-15 08:43:00,SystemResetWarning,0828.2,5.00,000.00,019.0,018.4,000.0,027.6,020.6,20.9,-000.3,0007.74,0009.50,0007.58
2024-02-15 08:44:00,SystemResetWarning,0828.1,5.00,000.00,019.0,018.4,000.0,027.6,020.6,20.9,-000.1,0007.67,0009.81,0007.51
2024-02-15 08:45:00,SystemResetWarning,0828.2,5.00,000.00,019.0,018.4,000.0,027.6,020.6,20.9,0000.1,0007.55,0009.86,0007.40
2024-02-15 08:46:00,SystemResetWarning,0828.2,5.00,000.00,019.0,018.4,000.0,027.6,020.6,21.0,0000.2,0007.42,0009.72,0007.28
2024-02-15 08:47:00,SystemResetWarning,0828.3,5.00,000.00,018.9,018.3,000.0,027.6,020.6,21.0,0000.1,0007.30,0009.57,0007.17
2024-02-15 08:48:00,SystemResetWarning,0828.3,5.01,000.00,018.9,018.3,000.0,027.5,020.6,20.9,0000.3,0007.17,0009.41,0007.06
2024-02-15 08:49:00,SystemResetWarning,0828.2,5.00,000.00,018.9,018.3,000.0,027.5,020.5,21.0,0000.2,0007.03,0009.25,0006.94
2024-02-15 08:50:00,SystemResetWarning,0828.1,5.00,000.00,018.9,018.2,000.0,027.5,020.4,21.0,0000.1,0006.91,0009.21,0006.81
2024-02-15 08:51:00,SystemResetWarning,0828.1,5.00,000.00,018.8,018.2,000.0,027.5,020.4,21.1,-000.0,0006.80,0009.12,0006.70
2024-02-15 08:52:00,SystemResetWarning,0828.0,4.99,000.00,018.8,018.2,000.0,027.5,020.4,21.1,0000.2,0006.72,0009.05,0006.61
2024-02-15 08:53:00,SystemResetWarning,0828.1,4.99,000.00,018.8,018.2,000.0,027.4,020.4,21.2,0000.3,0006.67,0009.00,0006.58
2024-02-15 08:54:00,SystemResetWarning,0828.1,5.00,000.00,018.8,018.2,000.0,027.4,020.4,21.2,0000.2,0006.67,0009.03,0006.56
2024-02-15 08:55:00,SystemResetWarning,0828.1,5.01,000.00,018.8,018.2,000.0,027.4,020.4,21.2,-000.3,0006.63,0008.65,0006.51
2024-02-15 08:56:00,SystemResetWarning,0828.2,5.00,000.00,018.7,018.2,000.0,027.4,020.4,21.2,-000.3,0006.64,0008.80,0006.52
2024-02-15 08:57:00,SystemResetWarning,0828.2,5.01,000.00,018.7,018.2,000.0,027.3,020.3,21.3,-000.2,0006.65,0009.16,0006.53
2024-02-15 08:58:00,SystemResetWarning,0828.1,5.00,000.00,018.7,018.1,000.0,027.3,020.3,21.3,0000.1,0006.66,0009.16,0006.55
2024-02-15 08:59:00,SystemResetWarning,0828.1,5.00,000.00,018.7,018.1,000.0,027.3,020.3,21.4,-000.1,0006.67,0009.18,0006.55
